Weather Roundup
Issued by NWS Springfield, MO

Home | Current Version | Previous Version | Text Only | Print | Product List | Glossary On
Versions: 1 2 3 4 5 6 7 8 9 10 11 12 13 14 15 16 17 18 19 20 21 22 23 24 25 26 27 28 29 30 31 32 33 34 35 36 37 38 39 40 41 42 43 44 45 46 47 48 49 50
000
NZUS99 KSGF 220907
HRRSGF

HOURLY WEATHER
NATIONAL WEATHER SERVICE SPRINGFIELD MO
400 AM CDT TUE JUL 22 2014

......SGF CWA......

CITY           SKY/WX    TMP DP  RH WIND       PRES   REMARKS
SPRINGFIELD    PTCLDY    71  66  84 S8        30.08R
JOPLIN         PTCLDY    73  69  87 S8        30.05F
WEST PLAINS    CLEAR     66  62  87 W3        30.12R
ROLLA          CLEAR     68  64  87 S10       30.07F
OSAGE BEACH    CLEAR     70  64  83 SE6       30.06S
BRANSON        PTCLDY    68  66  94 CALM      30.10S

......SURROUNDING SGF CWA......

CITY           SKY/WX    TMP DP  RH WIND       PRES   REMARKS
CHANUTE        PTCLDY    75  71  87 S8        30.02S
PARSONS        PTCLDY    76  70  82 S5        30.04S
COFFEYVILLE    MOCLDY    74  71  91 S6        30.02S FOG
EMPORIA        MOCLDY    75  74  96 S10       30.00S FOG
GROVE OK       PTCLDY    73  68  83 CALM      30.06S
ROGERS AR      PTCLDY    70  66  87 SE6       30.11R
SILOAM SPRINGS CLEAR     70  63  78 CALM      30.10R
HARRISON AR    PTCLDY    67  67 100 SE3       30.09F
NEAR YELLVILLE CLEAR     66  63  88 NE3       30.08S

......KANSAS AND MISSOURI......

CITY           SKY/WX    TMP DP  RH WIND       PRES   REMARKS
KANSAS CTY INT PTCLDY    78  73  84 SW12      29.99R
DOWNTOWN KC    CLEAR     80  74  81 S12       29.98R
COLUMBIA       CLEAR     71  67  87 S8        30.05F
SEDALIA        CLEAR     73  67  81 S8        30.05R
ST JOSEPH      PTCLDY    78  74  87 S9        29.96R
ST LOUIS       CLEAR     75  65  70 SW6       30.08S
SPIRIT OF STL  CLEAR     66  64  93 CALM      30.06S FOG
KIRKSVILLE     PTCLDY    73  68  84 S7        30.02S
WICHITA        CLOUDY    77  74  90 S8        30.00S
TOPEKA         PTCLDY    80  75  84 VRB6      29.97S
OLATHE         CLEAR     75  73  93 S7        30.00R

......TENNESSEE......

CITY           SKY/WX    TMP DP  RH WIND       PRES   REMARKS
MEMPHIS        CLEAR     76  66  71 VRB5      30.06F
NASHVILLE      PTCLDY    73  71  93 CALM      30.07S

......ARKANSAS.......

CITY           SKY/WX    TMP DP  RH WIND       PRES   REMARKS
FAYETTEVILLE   CLEAR     65  65 100 CALM      30.10R
FT SMITH       PTCLDY    73  69  87 NE5       30.05S
LITTLE ROCK    CLEAR     69  66  90 CALM      30.06F

......OKLAHOMA.......

CITY           SKY/WX    TMP DP  RH WIND       PRES   REMARKS
TULSA          CLOUDY    78  73  84 S7        30.02S
PONCA CITY     CLOUDY    78  73  84 VRB7      30.00S
MCALESTER      MOCLDY    73  71  93 CALM      30.05F FOG
OKLAHOMA CITY  CLOUDY    76  72  87 S8        30.03F

......IOWA............

CITY           SKY/WX    TMP DP  RH WIND       PRES   REMARKS
DES MOINES     CLOUDY    81  74  79 S13       29.90S
QUAD CITIES    CLEAR     74  66  76 S9        30.00S

......ILLINOIS........

CITY           SKY/WX    TMP DP  RH WIND       PRES   REMARKS
QUINCY         CLEAR     71  67  87 S8        30.04S
CHICAGO        CLEAR     71  62  73 S7        30.05S




USA.gov is the U.S. government's official web portal to all federal, state and local government web resources and services.